Meteo Giornale » Osservazioni meteo Germania » Niederrhein

ore: 19:50 - Osservazioni Meteo Niederrhein
Lat. 51° 36' N Lon. 6° 9' E Alt. 32 metri s.l.m.

sereno Europe/Berlin

19 °C

Sereno

Temp. 24 Ore

13 °C

22 °C

Nord

0 Km/h

Dew point 14 °C

Umidità 72 %

Visibilità  10 Km

Il sole sorge alle ore 07:12

Il sole tramonta alle ore 19:47

Data e Ora Cielo e Fenomeni T °C DP °C Um. % Pres. hPa Vis. km Vento km/h
Oggi h: 19:50 sereno Sereno 19 14 72 1015 10 N 0
Oggi h: 19:20 sereno Sereno 20 14 68 1015 10 N 0
Oggi h: 18:50 sereno Sereno 20 14 68 1015 10 N 3.7
Oggi h: 18:20 poco_nuvoloso Poco Nuvoloso 21 14 64 1015 10 O/NO 7.4
Oggi h: 17:50 poco_nuvoloso Poco Nuvoloso 21 14 64 1015 10 O/NO 9.3
Oggi h: 17:20 poco_nuvoloso Poco Nuvoloso 21 13 60 1015 10 O 9.3
Oggi h: 16:50 sereno Sereno 22 13 56 1015 10 O 7.4
Oggi h: 16:20 sereno Sereno 22 13 56 1015 10 O 13
Oggi h: 15:50 nuvoloso Nuvoloso 21 13 60 1015 10 O 13
Oggi h: 15:20 nuvoloso Nuvoloso 22 14 60 1015 10 O 11.1
Oggi h: 14:50 nuvoloso Nuvoloso 21 14 64 1015 10 O/SO 11.1
Oggi h: 14:20 nuvoloso Nuvoloso 20 14 68 1016 10 O 9.3
Oggi h: 13:50 sereno Sereno 21 15 68 1016 10 O/SO 13
Oggi h: 13:20 sereno Sereno 20 15 72 1016 10 O 13
Oggi h: 12:50 sereno Sereno 20 15 72 1016 10 O/SO 13
Oggi h: 12:20 sereno Sereno 20 15 72 1016 10 SO 9.3
Oggi h: 11:50 poco_nuvoloso Poco Nuvoloso 19 15 77 1016 10 SO 11.1
Oggi h: 11:20 sereno Sereno 18 14 77 1016 10 S/SO 9.3
Oggi h: 10:50 sereno Sereno 19 14 72 1016 10 S 9.3
Oggi h: 10:20 poco_nuvoloso Poco Nuvoloso 17 15 88 1016 10 S 7.4
Oggi h: 09:50 poco_nuvoloso Poco Nuvoloso 16 14 87 1016 10 N 5.5
Oggi h: 09:20 sereno Sereno 15 13 87 1016 10 N 3.7
Oggi h: 08:50 molto_nuvoloso Molto Nuvoloso 15 13 87 1016 10 N 3.7
Oggi h: 08:20 sereno Sereno 14 13 93 1016 9 N 3.7
Oggi h: 07:50 sereno Sereno 14 13 93 1016 9 N 3.7
Oggi h: 07:20 sereno Sereno 14 13 93 1016 9 N 5.5
Oggi h: 06:50 sereno Sereno 14 13 93 1016 8 N 3.7
Oggi h: 06:20 nuvoloso Nuvoloso 13 13 100 1016 7 N 1.8
Oggi h: 05:50 sereno Sereno 13 13 100 1016 7 N 3.7
Oggi h: 05:20 nuvoloso Nuvoloso 13 13 100 1017 7 N 3.7
Oggi h: 04:50 nuvoloso Nuvoloso 13 12 93 1017 8 N 3.7
Ieri h: 23:50 sereno Sereno 14 13 93 1018 10 N 1.8
Ieri h: 23:20 sereno Sereno 14 13 93 1018 10 N 1.8
Ieri h: 22:50 sereno Sereno 14 13 93 1017 10 N 0
Ieri h: 22:20 sereno Sereno 15 13 87 1017 10 N 1.8
Ieri h: 21:50 sereno Sereno 15 13 87 1017 10 N 1.8
Ieri h: 21:20 sereno Sereno 15 14 93 1017 10 N 0
Ieri h: 20:50 sereno Sereno 17 14 82 1017 10 N 0